When you browse on this site, cookies collect data to enhance your experience and personalize the content and advertising you see.
Visit our Privacy Policy to learn more. By continuing to use the site, you agree to this use of cookies and data.
  • In Latvia
  • List of Countries
  • For 7 days
  • Water Temperature
  • Satellite Maps
  • Weather Map
  • Weather Widgets
  • user-avatar
    Login

    Hourly Weather Giumri

    Today, 25 June, Tuesday

    Time Temperature Precipitation Wind Pressure Humidity
    00:00 +16°C° 0.1 mm 2 mps 636 mmHg 81%
    01:00 +16°C° 0 mm 2 mps 636 mmHg 81%
    02:00 +16°C° 0 mm 2 mps 636 mmHg 82%
    03:00 +16°C° 0 mm 2 mps 635 mmHg 83%
    04:00 +16°C° 0 mm 2 mps 636 mmHg 83%
    05:00 +17°C° 0 mm 2 mps 636 mmHg 82%
    06:00 +17°C° 0 mm 2 mps 636 mmHg 82%
    07:00 +20°C° 0 mm 2 mps 637 mmHg 77%
    08:00 +23°C° 0 mm 2 mps 637 mmHg 71%
    09:00 +25°C° 0 mm 2 mps 638 mmHg 65%
    10:00 +26°C° 0.2 mm 2 mps 638 mmHg 60%
    11:00 +27°C° 0.2 mm 2 mps 638 mmHg 56%
    12:00 +28°C° 0.2 mm 2 mps 639 mmHg 51%
    13:00 +28°C° 0.2 mm 3 mps 638 mmHg 51%
    14:00 +28°C° 0.2 mm 3 mps 638 mmHg 51%
    15:00 +28°C° 0.2 mm 3 mps 638 mmHg 51%
    16:00 +27°C° 0.2 mm 3 mps 638 mmHg 57%
    17:00 +26°C° 0.2 mm 3 mps 637 mmHg 62%
    18:00 +25°C° 0.2 mm 3 mps 637 mmHg 67%
    19:00 +22°C° 0.1 mm 3 mps 637 mmHg 71%
    20:00 +20°C° 0.1 mm 3 mps 637 mmHg 74%
    21:00 +18°C° 0.1 mm 2 mps 637 mmHg 77%
    22:00 +17°C° 0.1 mm 2 mps 636 mmHg 76%
    23:00 +17°C° 0.1 mm 2 mps 636 mmHg 75%

    Tomorrow, 26 June, Wednesday

    Time Temperature Precipitation Wind Pressure Humidity
    00:00 +16°C° 0.1 mm 2 mps 636 mmHg 74%
    01:00 +16°C° 0 mm 2 mps 636 mmHg 74%
    02:00 +16°C° 0 mm 2 mps 636 mmHg 75%
    03:00 +16°C° 0 mm 2 mps 636 mmHg 75%
    04:00 +16°C° 0 mm 2 mps 636 mmHg 76%
    05:00 +17°C° 0 mm 2 mps 637 mmHg 76%
    06:00 +17°C° 0 mm 2 mps 637 mmHg 77%
    07:00 +20°C° 0 mm 2 mps 637 mmHg 71%
    08:00 +23°C° 0 mm 2 mps 638 mmHg 65%
    09:00 +25°C° 0 mm 2 mps 638 mmHg 59%
    10:00 +26°C° 0.2 mm 2 mps 638 mmHg 56%
    11:00 +27°C° 0.2 mm 2 mps 639 mmHg 53%
    12:00 +28°C° 0.2 mm 2 mps 639 mmHg 49%
    13:00 +28°C° 0.3 mm 2 mps 638 mmHg 50%
    14:00 +28°C° 0.3 mm 3 mps 638 mmHg 51%
    15:00 +28°C° 0.3 mm 3 mps 638 mmHg 52%
    16:00 +27°C° 0.6 mm 3 mps 637 mmHg 58%
    17:00 +25°C° 0.6 mm 3 mps 637 mmHg 64%
    18:00 +24°C° 0.6 mm 2 mps 636 mmHg 70%
    19:00 +21°C° 0.2 mm 2 mps 636 mmHg 73%
    20:00 +19°C° 0.2 mm 2 mps 636 mmHg 76%
    21:00 +18°C° 0.2 mm 2 mps 636 mmHg 79%
    22:00 +17°C° 0.3 mm 2 mps 635 mmHg 79%
    23:00 +17°C° 0.3 mm 2 mps 635 mmHg 79%

    Day after tomorrow, 27 June, Thursday

    Time Temperature Precipitation Wind Pressure Humidity
    00:00 +16°C° 0.3 mm 2 mps 635 mmHg 79%
    01:00 +16°C° 0.1 mm 2 mps 635 mmHg 80%
    02:00 +15°C° 0.1 mm 2 mps 635 mmHg 80%
    03:00 +15°C° 0.1 mm 2 mps 635 mmHg 81%
    04:00 +16°C° 0 mm 2 mps 635 mmHg 81%
    05:00 +16°C° 0 mm 2 mps 635 mmHg 82%
    06:00 +17°C° 0 mm 2 mps 635 mmHg 82%
    07:00 +19°C° 0 mm 2 mps 635 mmHg 77%
    08:00 +20°C° 0 mm 2 mps 636 mmHg 72%
    09:00 +23°C° 0 mm 2 mps 636 mmHg 67%
    10:00 +24°C° 0.3 mm 2 mps 636 mmHg 64%
    11:00 +25°C° 0.3 mm 2 mps 636 mmHg 61%
    12:00 +26°C° 0.3 mm 2 mps 636 mmHg 57%
    13:00 +26°C° 0.3 mm 3 mps 635 mmHg 58%
    14:00 +26°C° 0.3 mm 3 mps 635 mmHg 58%
    15:00 +26°C° 0.3 mm 4 mps 635 mmHg 59%
    16:00 +25°C° 0.3 mm 4 mps 634 mmHg 63%
    17:00 +24°C° 0.3 mm 3 mps 634 mmHg 68%
    18:00 +22°C° 0.3 mm 3 mps 634 mmHg 72%
    19:00 +21°C° 0.1 mm 3 mps 633 mmHg 76%
    20:00 +19°C° 0.1 mm 3 mps 633 mmHg 80%
    21:00 +17°C° 0.1 mm 2 mps 633 mmHg 85%
    22:00 +17°C° 0 mm 2 mps 632 mmHg 86%
    23:00 +17°C° 0 mm 2 mps 632 mmHg 86%

    28 June, Friday

    Time Temperature Precipitation Wind Pressure Humidity
    00:00 +17°C° 0 mm 2 mps 632 mmHg 87%
    01:00 +16°C° 0.1 mm 2 mps 632 mmHg 88%
    02:00 +16°C° 0.1 mm 2 mps 631 mmHg 88%
    03:00 +16°C° 0.1 mm 2 mps 631 mmHg 88%
    04:00 +16°C° 0.2 mm 2 mps 631 mmHg 88%
    05:00 +16°C° 0.2 mm 2 mps 631 mmHg 87%
    06:00 +16°C° 0.2 mm 2 mps 631 mmHg 86%
    07:00 +17°C° 1 mm 2 mps 631 mmHg 83%
    08:00 +18°C° 1 mm 2 mps 631 mmHg 80%
    09:00 +19°C° 1 mm 2 mps 631 mmHg 77%
    10:00 +21°C° 0.7 mm 2 mps 631 mmHg 72%
    11:00 +22°C° 0.7 mm 3 mps 631 mmHg 67%
    12:00 +25°C° 0.7 mm 3 mps 631 mmHg 62%
    13:00 +25°C° 0.6 mm 3 mps 631 mmHg 61%
    14:00 +25°C° 0.6 mm 3 mps 631 mmHg 60%
    15:00 +25°C° 0.6 mm 4 mps 631 mmHg 59%
    16:00 +24°C° 1 mm 3 mps 630 mmHg 66%
    17:00 +21°C° 1 mm 2 mps 630 mmHg 73%
    18:00 +21°C° 1 mm 1 mps 630 mmHg 79%
    19:00 +20°C° 0.8 mm 1 mps 630 mmHg 83%
    20:00 +19°C° 0.8 mm 1 mps 630 mmHg 86%
    21:00 +18°C° 0.8 mm 1 mps 630 mmHg 89%
    22:00 +16°C° 0 mm 1 mps 630 mmHg 88%
    23:00 +16°C° 0 mm 1 mps 630 mmHg 87%

    29 June, Saturday

    Time Temperature Precipitation Wind Pressure Humidity
    00:00 +15°C° 0 mm 1 mps 630 mmHg 86%
    01:00 +15°C° 0 mm 1 mps 629 mmHg 86%
    02:00 +15°C° 0 mm 1 mps 629 mmHg 86%
    03:00 +14°C° 0 mm 1 mps 629 mmHg 87%
    04:00 +15°C° 0 mm 1 mps 629 mmHg 86%
    05:00 +15°C° 0 mm 1 mps 629 mmHg 85%
    06:00 +16°C° 0 mm 1 mps 629 mmHg 85%
    07:00 +18°C° 0 mm 1 mps 630 mmHg 79%
    08:00 +20°C° 0 mm 1 mps 630 mmHg 74%
    09:00 +22°C° 0 mm 1 mps 630 mmHg 68%
    10:00 +23°C° 0.5 mm 1 mps 631 mmHg 65%
    11:00 +24°C° 0.5 mm 1 mps 631 mmHg 61%
    12:00 +25°C° 0.5 mm 1 mps 631 mmHg 57%
    13:00 +25°C° 1 mm 2 mps 631 mmHg 58%
    14:00 +25°C° 1 mm 2 mps 631 mmHg 60%
    15:00 +25°C° 1 mm 2 mps 631 mmHg 61%
    16:00 +24°C° 1.4 mm 3 mps 630 mmHg 66%
    17:00 +21°C° 1.4 mm 3 mps 630 mmHg 71%
    18:00 +20°C° 1.4 mm 4 mps 630 mmHg 76%
    19:00 +19°C° 0.9 mm 3 mps 630 mmHg 80%
    20:00 +18°C° 0.9 mm 3 mps 630 mmHg 84%
    21:00 +16°C° 0.9 mm 2 mps 630 mmHg 87%
    22:00 +16°C° 0.6 mm 2 mps 630 mmHg 88%
    23:00 +15°C° 0.6 mm 2 mps 630 mmHg 89%

    30 June, Sunday

    Time Temperature Precipitation Wind Pressure Humidity
    00:00 +15°C° 0.6 mm 1 mps 630 mmHg 89%
    01:00 +15°C° 0.7 mm 1 mps 630 mmHg 90%
    02:00 +15°C° 0.7 mm 1 mps 629 mmHg 91%
    03:00 +14°C° 0.7 mm 2 mps 629 mmHg 91%
    04:00 +14°C° 1.5 mm 2 mps 629 mmHg 92%
    05:00 +14°C° 1.5 mm 2 mps 629 mmHg 93%
    06:00 +14°C° 1.5 mm 2 mps 629 mmHg 94%
    07:00 +14°C° 1.5 mm 1 mps 629 mmHg 92%
    08:00 +14°C° 1.5 mm 1 mps 629 mmHg 91%
    09:00 +15°C° 1.5 mm 1 mps 629 mmHg 89%
    10:00 +16°C° 0.6 mm 1 mps 630 mmHg 84%
    11:00 +18°C° 0.6 mm 1 mps 630 mmHg 79%
    12:00 +19°C° 0.6 mm 1 mps 631 mmHg 74%
    13:00 +18°C° 1.4 mm 2 mps 631 mmHg 74%
    14:00 +18°C° 1.4 mm 2 mps 630 mmHg 75%
    15:00 +18°C° 1.4 mm 3 mps 630 mmHg 76%
    16:00 +16°C° 0.8 mm 3 mps 630 mmHg 80%
    17:00 +14°C° 0.8 mm 4 mps 630 mmHg 84%
    18:00 +13°C° 0.8 mm 4 mps 630 mmHg 88%
    19:00 +13°C° 1.2 mm 3 mps 630 mmHg 88%
    20:00 +12°C° 1.2 mm 3 mps 630 mmHg 89%
    21:00 +12°C° 1.2 mm 3 mps 630 mmHg 89%
    22:00 +11°C° 0.1 mm 3 mps 630 mmHg 89%
    23:00 +10°C° 0.1 mm 3 mps 630 mmHg 89%
    Show more